Regional Weather Roundup
Issued by NWS

Home | Current Version | Previous Version | Graphics & Text | Print | Product List | Glossary On
Versions: 1 2 3 4 5 6 7 8 9 10 11 12 13 14 15 16 17 18 19 20 21 22 23 24 25 26 27 28 29 30 31 32 33 34 35 36 37 38 39 40 41 42 43 44 45 46 47 48 49 50
000
ASUS43 KBIS 301320
RWRND

NORTH DAKOTA REGIONAL WEATHER ROUNDUP
NATIONAL WEATHER SERVICE BISMARCK ND
800 AM CDT TUE SEP 30 2014

NOTE: "FAIR" INDICATES FEW OR NO CLOUDS BELOW 12,000 FEET WITH NO
SIGNIFICANT WEATHER AND/OR OBSTRUCTIONS TO VISIBILITY.


NDZ001>003-009>011-017-301400-
NORTHWEST NORTH DAKOTA

CITY           SKY/WX    TMP DP  RH WIND       PRES   REMARKS
WILLISTON      RAIN      52  51  97 SE5       29.71F FOG
MINOT          CLOUDY    49  47  93 E14       29.76F FOG
MINOT AFB      CLOUDY    49  49 100 SE16      29.76F FOG
$$

NDZ018>021-031>035-040>046-301400-
SOUTHWEST NORTH DAKOTA

CITY           SKY/WX    TMP DP  RH WIND       PRES   REMARKS
BISMARCK       CLOUDY    54  50  86 E14       29.74F
DICKINSON      LGT RAIN  51  51 100 E12       29.66F
GARRISON         N/A     53  51  93 SE10      29.75S
HETTINGER ARPT RAIN      53  52  96 E15       29.64F FOG
$$

NDZ004>008-012>016-024-026-027-054-301400-
NORTHEAST NORTH DAKOTA

CITY           SKY/WX    TMP DP  RH WIND       PRES   REMARKS
GRAND FORKS    MOCLDY    43  41  93 SE10      29.95F
GRND FRKS AFB  CLOUDY    42  41  99 SE8       29.95R
DEVILS LAKE    CLOUDY    46  39  76 SE16      29.84F
$$

NDZ022-023-025-028>030-036>039-047>053-301400-
SOUTHEAST NORTH DAKOTA

CITY           SKY/WX    TMP DP  RH WIND       PRES   REMARKS
FARGO          CLOUDY    46  42  86 SE12      29.94F
JAMESTOWN      CLOUDY    45  43  93 SE15      29.84F
$$




USA.gov is the U.S. government's official web portal to all federal, state and local government web resources and services.